Weather History for Olivia, MN

Change the Weather History Date:

Tuesday, January 14, 2014

  Actual Average (KRWF) Record (KRWF)
Temperature  
Mean Temperature 22 °F -  
Max Temperature 33 °F 23 °F 47 °F (1944)
Min Temperature 12 °F 3 °F -23 °F (1972)
Degree Days  
Heating Degree Days 42    
Moisture  
Dew Point 16 °F    
Average Humidity 83    
Maximum Humidity 93    
Minimum Humidity 73    
Precipitation  
Precipitation 0.00 in - - ()
Sea Level Pressure  
Sea Level Pressure 29.90 in    
Wind  
Wind Speed 19 mph (NW)    
Max Wind Speed 32 mph    
Max Gust Speed 46 mph    
Visibility 5 miles    
Events Snow    
Averages and records for this station are not official NWS values.
T = Trace of Precipitation, MM = Missing Value Source: NWS Daily Summary

Daily Weather History Graph

Daily Weather History Graph

Search for Another Location

Airport:

Trip Planner

Search our weather history database for the weather conditions in past years. The results will help you decide how hot, cold, wet, or windy it might be!

Date:

Astronomy

Jan. 14, 2014 Rise Set
Actual Time 7:54 AM CST 5:04 PM CST
Civil Twilight 7:21 AM CST 5:36 PM CST
Nautical Twilight 6:45 AM CST 6:13 PM CST
Astronomical Twilight 6:10 AM CST 6:48 PM CST
Moon 4:11 PM CST (1/14) 6:28 AM CST (1/14)
Length of Visible Light 10h 15m
Length of Day
9h 09m
Waxing Gibbous, 98% of the Moon is Illuminated
Jan 14
Waxing Gibbous
Jan 15
Full
Jan 23
Last Quarter
Jan 30
New
Feb 6
First Quarter

Hourly Weather History & Observations

Time (CST) Temp. Windchill Dew Point Humidity Pressure Visibility Wind Dir Wind Speed Gust Speed Precip Events Conditions
12:13 AM 30.2 °F 26.7 °F 28.4 °F 93% 29.46 in 2.5 mi South 3.5 mph - N/A Snow Light Snow
12:34 AM 30.2 °F 26.7 °F 28.4 °F 93% 29.45 in 2.5 mi SSW 3.5 mph - N/A Snow Light Snow
12:53 AM 30.2 °F 25.4 °F 28.4 °F 93% 29.47 in 2.5 mi WSW 4.6 mph - N/A Snow Light Snow
1:13 AM 32.0 °F 25.6 °F 30.2 °F 93% 29.47 in 3.0 mi West 6.9 mph - N/A Snow Light Snow
1:34 AM 32.0 °F 22.1 °F 30.2 °F 93% 29.48 in 4.0 mi West 13.8 mph - N/A Snow Light Snow
1:53 AM 33.8 °F 23.2 °F 32.0 °F 93% 29.49 in 7.0 mi WNW 17.3 mph 25.3 mph N/A Snow Light Snow
2:13 AM 33.8 °F 22.2 °F 32.0 °F 93% 29.50 in 1.8 mi NW 20.7 mph 35.7 mph N/A Snow Light Snow
2:34 AM 32.0 °F 19.2 °F 30.2 °F 93% 29.52 in 1.5 mi NW 23.0 mph 31.1 mph N/A Snow Light Snow
2:54 AM 30.2 °F 15.9 °F 28.4 °F 93% 29.54 in 1.0 mi NW 26.5 mph 39.1 mph N/A Snow Light Snow
3:13 AM 30.2 °F 15.4 °F 28.4 °F 93% 29.55 in 0.8 mi NW 28.8 mph 46.0 mph N/A Snow Light Snow
3:33 AM 28.4 °F 12.7 °F 26.6 °F 93% 29.57 in 0.8 mi NW 29.9 mph 41.4 mph N/A Snow Light Snow
3:54 AM 26.6 °F 10.0 °F 23.0 °F 86% 29.59 in 0.8 mi NW 31.1 mph 46.0 mph N/A Snow Light Snow
4:14 AM 26.6 °F 10.8 °F 23.0 °F 86% 29.61 in 1.2 mi NW 27.6 mph 35.7 mph N/A Snow Light Snow
4:33 AM 24.8 °F 7.3 °F 21.2 °F 86% 29.63 in 1.0 mi NW 32.2 mph 41.4 mph N/A Snow Light Snow
4:53 AM 23.0 °F 4.9 °F 21.2 °F 93% 29.65 in 1.2 mi NW 32.2 mph 42.6 mph N/A   Overcast
5:13 AM 23.0 °F 6.6 °F 21.2 °F 93% 29.67 in 2.0 mi NW 25.3 mph 35.7 mph N/A   Overcast
5:33 AM 23.0 °F 5.4 °F 21.2 °F 93% 29.69 in 2.0 mi NW 29.9 mph 35.7 mph N/A   Overcast
5:53 AM 23.0 °F 5.1 °F 21.2 °F 93% 29.70 in 1.8 mi NW 31.1 mph 39.1 mph N/A   Overcast
6:13 AM 23.0 °F 5.4 °F 19.4 °F 86% 29.72 in 1.5 mi NW 29.9 mph 38.0 mph N/A Snow Light Snow
6:33 AM 21.2 °F 3.3 °F 19.4 °F 93% 29.74 in 1.8 mi NW 28.8 mph 35.7 mph N/A Snow Light Snow
6:53 AM 21.2 °F 4.5 °F 19.4 °F 93% 29.75 in 2.0 mi NW 24.2 mph 34.5 mph N/A Snow Light Snow
7:13 AM 21.2 °F 3.9 °F 19.4 °F 93% 29.76 in 1.2 mi NW 26.5 mph 35.7 mph N/A Snow Light Snow
7:33 AM 21.2 °F 4.5 °F 19.4 °F 93% 29.77 in 1.8 mi NW 24.2 mph 32.2 mph N/A Snow Light Snow
7:53 AM 21.2 °F 4.5 °F 19.4 °F 93% 29.79 in 1.0 mi NW 24.2 mph 29.9 mph N/A Snow Light Snow
8:14 AM 21.2 °F 4.9 °F 17.6 °F 86% 29.80 in 1.5 mi NW 23.0 mph 33.4 mph N/A Snow Light Snow
8:33 AM 21.2 °F 3.3 °F 17.6 °F 86% 29.81 in 2.0 mi NW 28.8 mph 34.5 mph N/A Snow Light Snow
8:54 AM 21.2 °F 5.2 °F 17.6 °F 86% 29.83 in 4.0 mi NW 21.9 mph 29.9 mph N/A Snow Light Snow
9:13 AM 21.2 °F 3.3 °F 17.6 °F 86% 29.84 in 2.5 mi NW 28.8 mph 34.5 mph N/A   Overcast
9:33 AM 21.2 °F 4.9 °F 17.6 °F 86% 29.86 in 3.0 mi NW 23.0 mph 28.8 mph N/A   Overcast
9:54 AM 21.2 °F 4.9 °F 17.6 °F 86% 29.87 in 2.5 mi NW 23.0 mph 29.9 mph N/A   Overcast
10:13 AM 21.2 °F 4.5 °F 17.6 °F 86% 29.89 in 2.0 mi NW 24.2 mph 31.1 mph N/A   Overcast
10:33 AM 21.2 °F 5.2 °F 17.6 °F 86% 29.91 in 2.0 mi NW 21.9 mph 34.5 mph N/A   Mostly Cloudy
10:54 AM 21.2 °F 6.0 °F 15.8 °F 80% 29.92 in 7.0 mi NW 19.6 mph 27.6 mph N/A   Mostly Cloudy
11:14 AM 21.2 °F 4.5 °F 15.8 °F 80% 29.93 in 2.5 mi NNW 24.2 mph 34.5 mph N/A   Haze
11:33 AM 21.2 °F 5.6 °F 15.8 °F 80% 29.94 in 1.2 mi NNW 20.7 mph 28.8 mph N/A   Haze
11:53 AM 21.2 °F 4.9 °F 17.6 °F 86% 29.95 in 1.0 mi NW 23.0 mph 28.8 mph N/A Snow Light Snow
12:14 PM 21.2 °F 4.5 °F 15.8 °F 80% 29.95 in 3.0 mi NW 24.2 mph 29.9 mph N/A   Haze
12:33 PM 21.2 °F 4.9 °F 15.8 °F 80% 29.96 in 3.0 mi NW 23.0 mph 31.1 mph N/A   Haze
12:53 PM 19.4 °F 2.5 °F 14.0 °F 80% 29.97 in 2.0 mi NW 23.0 mph 29.9 mph N/A   Haze
1:13 PM 19.4 °F 1.8 °F 14.0 °F 80% 29.97 in 5.0 mi NW 25.3 mph 29.9 mph N/A   Haze
1:33 PM 19.4 °F 2.5 °F 14.0 °F 80% 29.99 in 10.0 mi NW 23.0 mph 33.4 mph N/A   Mostly Cloudy
1:54 PM 19.4 °F 2.8 °F 12.2 °F 74% 29.99 in 7.0 mi NW 21.9 mph 32.2 mph N/A   Mostly Cloudy
2:13 PM 19.4 °F 2.1 °F 12.2 °F 74% 30.00 in 3.0 mi NW 24.2 mph 28.8 mph N/A Snow Light Snow
2:34 PM 17.6 °F -1.0 °F 12.2 °F 79% 30.01 in 4.0 mi NW 26.5 mph 33.4 mph N/A Snow Light Snow
2:53 PM 17.6 °F 0.5 °F 12.2 °F 79% 30.02 in 5.0 mi NW 21.9 mph 31.1 mph N/A   Haze
3:13 PM 17.6 °F -0.6 °F 12.2 °F 79% 30.03 in 7.0 mi NW 25.3 mph 32.2 mph N/A   Scattered Clouds
3:34 PM 17.6 °F -1.0 °F 12.2 °F 79% 30.05 in 7.0 mi NW 26.5 mph 33.4 mph N/A   Clear
3:54 PM 17.6 °F -0.6 °F 10.4 °F 73% 30.06 in 1.8 mi NW 25.3 mph 32.2 mph N/A   Haze
4:14 PM 15.8 °F -3.1 °F 10.4 °F 79% 30.08 in 1.5 mi NW 25.3 mph 31.1 mph N/A   Haze
4:33 PM 15.8 °F -0.6 °F 10.4 °F 79% 30.09 in 5.0 mi NNW 18.4 mph 26.5 mph N/A   Haze
4:53 PM 15.8 °F -0.6 °F 10.4 °F 79% 30.09 in 10.0 mi NW 18.4 mph 27.6 mph N/A   Scattered Clouds
5:14 PM 15.8 °F -0.2 °F 10.4 °F 79% 30.10 in 10.0 mi NW 17.3 mph 25.3 mph N/A   Scattered Clouds
5:33 PM 15.8 °F -1.1 °F 10.4 °F 79% 30.11 in 10.0 mi NW 19.6 mph 26.5 mph N/A   Mostly Cloudy
5:53 PM 15.8 °F -1.1 °F 8.6 °F 73% 30.12 in 10.0 mi NW 19.6 mph - N/A   Overcast
6:14 PM 14.0 °F -3.9 °F 8.6 °F 79% 30.12 in 10.0 mi NW 20.7 mph 27.6 mph N/A   Overcast
6:34 PM 12.2 °F -4.8 °F 5.0 °F 73% 30.13 in 10.0 mi NNW 17.3 mph 25.3 mph N/A   Mostly Cloudy
6:53 PM 12.2 °F -4.3 °F 6.8 °F 79% 30.14 in 10.0 mi NW 16.1 mph - N/A   Scattered Clouds
7:13 PM 12.2 °F -3.7 °F 6.8 °F 79% 30.15 in 10.0 mi NW 15.0 mph - N/A   Mostly Cloudy
7:34 PM 12.2 °F -5.3 °F 6.8 °F 79% 30.15 in 10.0 mi NW 18.4 mph 25.3 mph N/A   Mostly Cloudy
7:53 PM 12.2 °F -6.7 °F 6.8 °F 79% 30.15 in 10.0 mi NNW 21.9 mph 28.8 mph N/A   Mostly Cloudy
8:13 PM 12.2 °F -4.8 °F 6.8 °F 79% 30.15 in 10.0 mi NW 17.3 mph 21.9 mph N/A   Overcast
8:34 PM 12.2 °F -3.7 °F 5.0 °F 73% 30.16 in 10.0 mi NNW 15.0 mph - N/A   Mostly Cloudy
8:53 PM 12.2 °F -4.3 °F 5.0 °F 73% 30.16 in 10.0 mi NNW 16.1 mph - N/A   Scattered Clouds
9:13 PM 12.2 °F -4.3 °F 5.0 °F 73% 30.16 in 10.0 mi NNW 16.1 mph 23.0 mph N/A   Clear
9:34 PM 12.2 °F -5.3 °F 5.0 °F 73% 30.16 in 10.0 mi NNW 18.4 mph 25.3 mph N/A   Clear
9:53 PM 12.2 °F -5.8 °F 5.0 °F 73% 30.16 in 10.0 mi NNW 19.6 mph 24.2 mph N/A   Scattered Clouds
10:13 PM 12.2 °F -5.3 °F 6.8 °F 79% 30.18 in 10.0 mi NNW 18.4 mph 23.0 mph N/A   Overcast
10:34 PM 12.2 °F -5.3 °F 6.8 °F 79% 30.16 in 10.0 mi NNW 18.4 mph - N/A   Overcast
10:53 PM 12.2 °F -3.7 °F 6.8 °F 79% 30.16 in 7.0 mi NNW 15.0 mph - N/A   Overcast
11:13 PM 12.2 °F -3.1 °F 6.8 °F 79% 30.16 in 10.0 mi NW 13.8 mph 23.0 mph N/A   Overcast
11:33 PM 12.2 °F -6.3 °F 6.8 °F 79% 30.15 in 7.0 mi NNW 20.7 mph 25.3 mph N/A   Overcast
11:53 PM 12.2 °F -5.8 °F 6.8 °F 79% 30.16 in 10.0 mi NNW 19.6 mph 26.5 mph N/A   Overcast